Location: Newark
(33.6672°N, 93.5965°W)
Time: 05:03:18
(UTC+00:00)

Hubble Space Telescope - Visible Passes

Search period start: 13 December 2019 00:00
Search period end: 23 December 2019 00:00
Orbit: 536 x 540 km, 28.5° (Epoch: 12 December)

Date Brightness Start Highest point End Pass type
(mag) Time Alt. Az. Time Alt. Az. Time Alt. Az.
13 Dec 3.2 11:45:56 10° SSW 11:48:48 18° SSE 11:51:41 10° ESE visible
14 Dec 2.9 11:35:04 11° SSW 11:38:07 22° SSE 11:41:19 10° ESE visible
15 Dec 2.6 11:25:33 18° SSW 11:27:26 25° SSE 11:30:52 10° ESE visible
16 Dec 2.3 11:15:54 26° S 11:16:46 28° SSE 11:20:22 10° ESE visible
17 Dec 2.1 11:06:09 32° SSE 11:06:09 32° SSE 11:09:49 10° ESE visible
17 Dec 1.9 12:43:06 10° WSW 12:46:59 40° S 12:50:52 10° ESE visible
18 Dec 2.3 10:56:19 31° SE 10:56:19 31° SE 10:59:15 10° ESE visible
18 Dec 1.9 12:32:29 10° WSW 12:36:21 38° S 12:40:12 10° ESE visible
19 Dec 2.7 10:46:26 26° SE 10:46:26 26° SE 10:48:39 10° ESE visible
19 Dec 1.9 12:21:53 10° WSW 12:25:42 36° S 12:29:31 10° ESE visible
20 Dec 3.2 10:36:30 20° ESE 10:36:30 20° ESE 10:38:03 10° ESE visible
20 Dec 2.0 12:11:50 13° WSW 12:15:03 33° S 12:18:47 10° SE visible
21 Dec 3.6 10:26:32 15° ESE 10:26:32 15° ESE 10:27:25 10° ESE visible
21 Dec 2.1 12:01:52 16° WSW 12:04:24 30° SSW 12:08:02 10° SE visible
22 Dec 4.0 10:16:34 11° ESE 10:16:34 11° ESE 10:16:46 10° ESE visible
22 Dec 2.3 11:51:54 19° SW 11:53:43 26° SSW 11:57:13 10° SE visible
